Simultaneous Nadir Overpasses (SNOs) Predictions

Prediction of SNOs between GOES-15 and METOP-B Satellite Orbit:

Table of predicted SNOs for the next 14.0 days since TLE Epoch: 3/11/2023
Index Date Time (GOES-15) GOES-15 Lat,Lon METOP-B Lat,Lon Distance(km) Time Diff (sec)
1 03/11/2023 05:55:27 0.05,-127.77 0.43,-126.03 197.18 80
2 03/12/2023 18:11:38 -0.07,-127.71 0.57,-130.60 328.81 80
3 03/13/2023 17:53:38 -0.06,-127.68 -0.52,-125.60 236.81 80
4 03/15/2023 06:09:57 0.08,-127.63 -0.49,-130.19 292.22 80
5 03/16/2023 05:51:56 0.07,-127.59 0.60,-125.19 273.20 80
6 03/17/2023 18:08:07 -0.09,-127.52 0.43,-129.75 253.79 80
7 03/18/2023 17:50:06 -0.08,-127.48 -0.68,-124.75 311.34 80
8 03/20/2023 06:06:26 0.09,-127.42 -0.31,-129.35 218.27 80
9 03/21/2023 05:48:24 0.08,-127.39 0.74,-124.33 347.25 80
10 03/22/2023 18:04:34 -0.09,-127.32 0.27,-128.89 179.32 80
11 03/23/2023 17:46:34 -0.09,-127.28 -0.85,-123.89 385.77 80
